レモン彗星

C/2021 T4 ( Lemmon )

English version
Home page
Updated on February 29, 2024

---------------------------------------------------------------------

・ プロフィール

発見日 2021年10月7日
発見光度 20.2等
発見者 Mount Lemmon

・ 写真集

・ 軌道要素

Epoch 2024 Mar. 31.0 TT = JDT 2460400.5
T 2023 July 31.53984 TT                                 Rudenko
q   1.4831275            (2000.0)            P               Q
z  +0.0000398      Peri.  329.81846     +0.28274727     -0.90356725
 +/-0.0000005      Node   257.88681     -0.80100286     -0.40704407
e   0.9999410      Incl.  160.77788     -0.52768210     +0.13372120
>From 1628 observations 2021 Aug. 7-2024 Feb. 23, mean residual 0".7.

・ 星図

・ 光度変化

        m1 = 7.5 + 5 logΔ + 10.0 log r

---------------------------------------------------------------------

軌道要素はM.P.E.C. 2024-D126に掲載されたものです。
星図はステラナビゲータ Ver.10 (アストロアーツ) で作成したものです。
光度グラフはComet for Windowsで作成したものです。

---------------------------------------------------------------------

Copyright(C) Seiichi Yoshida (comet@aerith.net). All rights reserved.